Content
SEND FEEDBACK

Daily
Averages
Monthly
Summary
Canada

VICTORIA, BRITISH COLUMBIA


Home > North America > Canada > British Columbia
Elevation: 62 feet     Latitude: 48 39N     Longitude: 123 26W

WEATHER
 
SELECT A DAY
Number of Records: 195,231;   Date Range: 1/1/95 - 7/28/14
 
SHARE

PRINT THIS DATA

[ ← Previous Day ]
WEATHER ALMANAC - JANUARY 23, 2013
[ Next Day → ]
[ °C ]   °F
Weather ElementAverageHighLow
Temperature38 °F42.8 °F (4:00 pm)33.8 °F (10:13 pm)
Dewpoint25.7 °F41 °F (4:00 pm) (7:00 pm)
Humidity93 %100 % (8:00 pm)87 % (1:00 am)
Wind Speed3.5 mph5.8 mph (2:00 am)
Weather ElementAverage
Visibility13.1 mi
Wind DirectionWSW (231.6 °)

Weather ElementTotal
Precipitation---
Heating Degree Days26.7 (Base 65)
Averaged from 37 records on January 23, 2013
WEATHER CONDITIONS BREAKOUT
WIND DIRECTION BREAKOUT
WEATHER BY HOUR - JANUARY 23, 2013
[ °C ]   °F
Local TimeTemperatureDewpointHumidityBarometerVisibilityWind DirectionWind SpeedGust SpeedPrecipitationEventsConditions
1:00 AM37.4 °F33.8 °F87 %29.94 in12.0 miNNW (340°)2.3 mphOvercast
1:36 AM35.6 °F0.0 °F12.0 miWNW (290°)3.5 mphOvercast
2:00 AM35.6 °F33.8 °F93 %29.94 in15.0 miWest (260°)5.8 mphOvercast
2:38 AM35.6 °F0.0 °F15.0 miNW (310°)4.6 mphRainLight Rain
3:00 AM37.4 °F35.6 °F93 %29.95 in15.0 miSouth (190°)5.8 mphRainLight Rain
4:00 AM37.0 °F36.0 °F92 %29.94 in12.0 miWNW (290°)2.3 mphRainLight Rain
4:00 AM37.4 °F35.6 °F93 %29.94 in12.0 miNW (310°)3.5 mphRainLight Rain
5:00 AM37.4 °F35.6 °F93 %29.91 in12.0 miWest (270°)3.5 mphRainLight Rain
5:18 AM37.4 °F0.0 °F12.0 miWest (270°)2.3 mphOvercast
6:00 AM37.4 °F35.6 °F93 %29.89 in12.0 miWest (280°)2.3 mphOvercast
6:17 AM37.4 °F0.0 °F12.0 miWest (280°)5.8 mphRainLight Rain
6:51 AM37.4 °F0.0 °F12.0 miWest (270°)4.6 mphOvercast
7:00 AM37.4 °F35.6 °F93 %29.88 in12.0 miWest (280°)4.6 mphOvercast
7:50 AM37.4 °F0.0 °F12.0 miWest (260°)3.5 mphRainLight Rain
9:00 AM37.4 °F35.6 °F93 %29.87 in12.0 miWest (280°)4.6 mphOvercast
10:00 AM39.0 °F37.0 °F90 %29.86 in12.0 miWest (270°)4.6 mphPartly Cloudy
10:00 AM39.2 °F37.4 °F93 %29.86 in12.0 miWest (270°)4.6 mphOvercast
10:06 AM39.2 °F0.0 °F12.0 miWest (270°)4.6 mphRainLight Rain
10:28 AM39.2 °F0.0 °F12.0 miWest (270°)3.5 mphOvercast
10:41 AM39.2 °F0.0 °F12.0 miWest (280°)5.8 mphRainLight Rain
11:00 AM39.2 °F37.4 °F93 %29.86 in12.0 miWest (270°)5.8 mphRainLight Rain
12:00 PM41.0 °F37.4 °F87 %29.85 in8.0 miWNW (290°)5.8 mphRainLight Rain
1:00 PM39.2 °F37.4 °F93 %29.83 in8.0 miWest (280°)4.6 mphRainLight Rain
2:00 PM39.2 °F37.4 °F93 %29.83 in8.0 miCalmRainLight Rain
2:44 PM41.0 °F0.0 °F8.0 miESE (120°)5.8 mphRainLight Rain
3:00 PM41.0 °F39.2 °F93 %29.83 in8.0 miSE (130°)4.6 mphOvercast
4:00 PM42.0 °F40.0 °F90 %29.86 in12.0 miSouth (170°)2.3 mphPartly Cloudy
4:00 PM42.8 °F41.0 °F93 %29.86 in12.0 miSouth (190°)2.3 mphMostly Cloudy
5:00 PM39.2 °F37.4 °F93 %29.88 in15.0 miWest (270°)2.3 mphMostly Cloudy
6:00 PM39.2 °F37.4 °F93 %29.90 in8.0 miCalmMostly Cloudy
7:00 PM39.2 °F37.4 °F93 %29.93 in12.0 miCalmMostly Cloudy
8:00 PM35.6 °F35.6 °F100 %29.96 in15.0 miWest (260°)2.3 mphPartly Cloudy
9:00 PM35.6 °F35.6 °F100 %30.00 in20.0 miSSW (210°)2.3 mphPartly Cloudy
10:00 PM37.0 °F35.0 °F91 %30.04 in19.0 miSouth (180°)3.5 mphScattered Clouds
10:00 PM37.4 °F35.6 °F93 %30.04 in20.0 miSouth (180°)2.3 mphPartly Cloudy
10:13 PM33.8 °F0.0 °F20.0 miWSW (250°)2.3 mphPartly Cloudy
11:00 PM33.8 °F33.8 °F100 %30.06 in30.0 miSW (230°)2.3 mphPartly Cloudy
Hourly data recorded from CYYJ, located miles away from Victoria, British Columbia







STORIES FROM OUR PARTNERS